Weather History for FABL - May, 2013

Change the Weather History Date:

Thursday, May 23, 2013

  Actual Average Record
Temperature  
Mean Temperature 54 °F -  
Max Temperature 75 °F 63 °F 75 °F (2004)
Min Temperature 34 °F 28 °F 21 °F (2007)
Degree Days  
Heating Degree Days 10    
Growing Degree Days 4 (Base 50)    
Moisture  
Dew Point 29 °F    
Average Humidity 47    
Maximum Humidity 81    
Minimum Humidity 6    
Precipitation  
Precipitation 0.00 in 0.02 in - ()
Sea Level Pressure  
Sea Level Pressure 30.26 in    
Wind  
Wind Speed 1 mph ()    
Max Wind Speed 7 mph    
Max Gust Speed -    
Visibility 16.8 miles    
Events      
Averages and records for this station are not official NWS values.
T = Trace of Precipitation, MM = Missing Value Source: Averaged Metar Reports

Daily Weather History Graph

Daily Weather History Graph

Search for Another Location

Airport or City:

Trip Planner

Search our weather history database for the weather conditions in past years. The results will help you decide how hot, cold, wet, or windy it might be!

Date:

Astronomy

May. 23, 2013 Rise Set
Actual Time 6:55 AM SAST 5:27 PM SAST
Civil Twilight 6:30 AM SAST 5:52 PM SAST
Nautical Twilight 6:01 AM SAST 6:21 PM SAST
Astronomical Twilight 5:32 AM SAST 6:50 PM SAST
Moon 4:06 PM SAST (5/23) 4:46 AM SAST (5/23)
Length of Visible Light 11h 22m
Length of Day
10h 31m
Waxing Gibbous, 95% of the Moon is Illuminated
May 23
Waxing Gibbous
May 25
Full
May 31
Last Quarter
Jun 8
New
Jun 16
First Quarter

Hourly Weather History & Observations

Time (SAST) Temp. Dew Point Humidity Pressure Visibility Wind Dir Wind Speed Gust Speed Precip Events Conditions
12:00 AM 41.0 °F 30.2 °F 65% 30.27 in - Calm Calm - N/A   Unknown
1:00 AM 39.2 °F 30.2 °F 70% 30.27 in - Calm Calm - N/A   Unknown
2:00 AM 40 °F 30 °F 58%  in - Calm Calm - -  
2:00 AM 39.2 °F 32.0 °F 75% 30.24 in - Calm Calm - N/A   Unknown
3:00 AM 37.4 °F 30.2 °F 75% 30.24 in - South 1.2 mph - N/A   Unknown
4:00 AM 35.6 °F 30.2 °F 81% 30.24 in - Calm Calm - N/A   Unknown
5:00 AM 36 °F 30 °F 70%  in 19 mi Calm Calm - -  
5:00 AM 35.6 °F 30.2 °F 81% 30.24 in - Calm Calm - N/A   Unknown
6:00 AM 35.6 °F 28.4 °F 75% 30.27 in - West 2.3 mph - N/A   Clear
7:00 AM 35.6 °F 28.4 °F 75% 30.27 in - Variable 1.2 mph - N/A   Clear
7:46 AM 41.0 °F 32.0 °F 70% 30.30 in - Calm Calm - N/A   Clear
8:00 AM 44 °F 31 °F 50%  in 19 mi Calm Calm - -  
8:00 AM 42.8 °F 32.0 °F 66% 30.30 in - Calm Calm - N/A   Clear
8:17 AM 46.4 °F 32.0 °F 57% 30.30 in - Variable 2.3 mph - N/A   Clear
8:49 AM 50.0 °F 33.8 °F 54% 30.30 in - Variable 1.2 mph - N/A   Clear
9:00 AM 50.0 °F 33.8 °F 54% 30.30 in - Variable 1.2 mph - N/A   Clear
10:00 AM 57.2 °F 33.8 °F 41% 30.30 in - ENE 4.6 mph - N/A   Clear
10:14 AM 60.8 °F 33.8 °F 36% 30.30 in - Variable 2.3 mph - N/A   Clear
11:00 AM 66.2 °F 30.2 °F 26% 30.30 in - North 4.6 mph - N/A   Clear
12:00 PM 69.8 °F 32.0 °F 25% 30.27 in - NNW 5.8 mph - N/A   Clear
1:00 PM 71.6 °F 28.4 °F 20% 30.24 in - NNW 6.9 mph - N/A   Clear
2:00 PM 74 °F 21 °F 6%  in 19 mi NNW 6.9 mph - -   Partly Cloudy
2:00 PM 73.4 °F 21.2 °F 14% 30.21 in - NNW 6.9 mph - N/A   Clear
3:00 PM 73.4 °F 28.4 °F 19% 30.21 in - North 5.8 mph - N/A   Clear
4:00 PM 71.6 °F 28.4 °F 20% 30.21 in - NNW 3.5 mph - N/A   Clear
5:00 PM 72 °F 21 °F 7%  in 19 mi NE 2.3 mph - -   Scattered Clouds
5:00 PM 71.6 °F 21.2 °F 15% 30.21 in - NE 1.2 mph - N/A   Clear
6:00 PM 64.4 °F 28.4 °F 26% 30.21 in - Variable 1.2 mph - N/A   Clear
7:00 PM 53.6 °F 28.4 °F 38% 30.24 in - Variable 1.2 mph - N/A   Clear
8:00 PM 52 °F 29 °F 28%  in 19 mi SW 2.3 mph - -   Scattered Clouds
8:00 PM 51.8 °F 30.2 °F 44% 30.24 in - WSW 3.5 mph - N/A   Clear
9:00 PM 46.4 °F 30.2 °F 53% 30.27 in 5.6 mi SW 2.3 mph - N/A   Unknown
10:00 PM 44.6 °F 30.2 °F 57% 30.27 in - SW 1.2 mph - N/A   Unknown
11:00 PM 46 °F 30 °F 42%  in - WSW 2.3 mph - -  
11:00 PM 44.6 °F 32.0 °F 61% 30.27 in - WSW 1.2 mph - N/A   Unknown